Location: Moy Burn
(57.3833°N, 4.0667°W)
Time: 09:41:58
(UTC+00:00)

Cosmos 1802 Rocket - Pass Details

Date: 08 August 2020
Orbit: 953 x 1012 km, 82.9° (Epoch: 18 September)

Event Time Altitude Azimuth Distance (km) Brightness Sun altitude
Exits shadow 22:58:41 19° 181° (S) 2,219 5.3 -14.8°
Maximum altitude 23:03:32 77° 98° (E) 1,035 4.0 -15.0°
Drops below altitude 10° 23:09:54 10° 14° (NNE) 2,771 7.3 -15.3°
Sets 23:12:25 0° 13° (NNE) 3,715 8.1 -15.4°
